ANA801 RJTT-RJSC

Flight info

Callsign ANA801
Flight time 0h 36m
Altitude 21000
Route AGRIS Y11 SHIRO Y157 IBELU
Aircraft A320/M-SDE3FGHIRWXY/S

Departure

Time 2026-05-05 00:36
Airport Tokyo Haneda International Airport (RJTT)

Arrival

Time 2026-05-05 01:13
Airport Yamagata Airport (RJSC)
Time Latitude Longitude Altitude Speed Heading
2026-05-05 00:10 35.54979 139.79297 27 ft 0 kts 160°
2026-05-05 00:27 35.54981 139.79296 27 ft 2 kts 160°
2026-05-05 00:28 35.55006 139.79285 32 ft 4 kts 160°
2026-05-05 00:28 35.55030 139.79273 29 ft 4 kts 140°
2026-05-05 00:28 35.55042 139.79249 27 ft 4 kts 86°
2026-05-05 00:28 35.55035 139.79219 27 ft 3 kts 60°
2026-05-05 00:29 35.55033 139.79216 27 ft 0 kts 60°
2026-05-05 00:31 35.55042 139.79235 27 ft 6 kts 60°
2026-05-05 00:31 35.55075 139.79305 28 ft 13 kts 60°
2026-05-05 00:31 35.55112 139.79427 27 ft 17 kts 111°
2026-05-05 00:32 35.55007 139.79521 27 ft 22 kts 151°
2026-05-05 00:32 35.54864 139.79621 26 ft 24 kts 150°
2026-05-05 00:32 35.54730 139.79716 24 ft 21 kts 150°
2026-05-05 00:32 35.54642 139.79784 25 ft 13 kts 147°
2026-05-05 00:33 35.54567 139.79839 24 ft 12 kts 153°
2026-05-05 00:33 35.54490 139.79888 23 ft 12 kts 152°
2026-05-05 00:33 35.54417 139.79939 23 ft 12 kts 150°
2026-05-05 00:33 35.54350 139.79986 24 ft 11 kts 149°
2026-05-05 00:34 35.54290 139.80030 23 ft 9 kts 149°
2026-05-05 00:34 35.54235 139.80069 23 ft 9 kts 149°
2026-05-05 00:34 35.54199 139.80126 21 ft 11 kts 104°
2026-05-05 00:34 35.54232 139.80243 26 ft 16 kts 60°
2026-05-05 00:35 35.54272 139.80284 28 ft 5 kts
2026-05-05 00:35 35.54324 139.80262 27 ft 11 kts 330°
2026-05-05 00:35 35.54368 139.80231 28 ft 21 kts 329°
2026-05-05 00:35 35.54713 139.79987 29 ft 91 kts 330°
2026-05-05 00:36 35.55435 139.79479 34 ft 145 kts 331°
2026-05-05 00:36 35.56332 139.78832 526 ft 153 kts 329°
2026-05-05 00:36 35.57315 139.78319 1230 ft 154 kts 356°
2026-05-05 00:36 35.58338 139.78655 1880 ft 164 kts 29°
2026-05-05 00:37 35.59311 139.79523 2245 ft 184 kts 33°
2026-05-05 00:37 35.60400 139.80524 2590 ft 206 kts 33°
2026-05-05 00:37 35.61599 139.81625 2998 ft 226 kts 34°
2026-05-05 00:37 35.62895 139.82818 3540 ft 243 kts 34°
2026-05-05 00:38 35.64296 139.84074 4242 ft 253 kts 27°
2026-05-05 00:38 35.65941 139.84810 5085 ft 255 kts
2026-05-05 00:38 35.67699 139.85239 5919 ft 260 kts
2026-05-05 00:38 35.69506 139.85374 6742 ft 263 kts 352°
2026-05-05 00:39 35.71281 139.84817 7558 ft 265 kts 335°
2026-05-05 00:39 35.72849 139.83634 8437 ft 265 kts 323°
2026-05-05 00:39 35.74450 139.82498 9306 ft 269 kts 339°
2026-05-05 00:39 35.76297 139.82048 10115 ft 276 kts 357°
2026-05-05 00:40 35.78211 139.82379 10885 ft 282 kts 14°
2026-05-05 00:40 35.80102 139.83279 11277 ft 303 kts 18°
2026-05-05 00:40 35.82123 139.84299 11585 ft 322 kts 18°
2026-05-05 00:40 35.84207 139.85371 12248 ft 327 kts 18°
2026-05-05 00:41 35.86309 139.86462 13045 ft 328 kts 18°
2026-05-05 00:41 35.88441 139.87468 13844 ft 326 kts 10°
2026-05-05 00:41 35.90656 139.87894 14558 ft 321 kts 357°
2026-05-05 00:41 35.92863 139.87656 15246 ft 318 kts 345°
2026-05-05 00:42 35.94962 139.86824 15896 ft 318 kts 336°
2026-05-05 00:42 35.97076 139.85985 16535 ft 323 kts 345°
2026-05-05 00:42 35.99338 139.85773 17160 ft 332 kts 358°
2026-05-05 00:42 36.01646 139.86287 17769 ft 344 kts 11°
2026-05-05 00:43 36.03915 139.87324 18374 ft 350 kts 14°
2026-05-05 00:43 36.06204 139.88398 18890 ft 354 kts 13°
2026-05-05 00:43 36.08522 139.89486 19350 ft 359 kts 13°
2026-05-05 00:43 36.10845 139.90580 19816 ft 365 kts 13°
2026-05-05 00:44 36.13229 139.91702 20286 ft 369 kts 13°
2026-05-05 00:44 36.15650 139.92833 20749 ft 375 kts 12°
2026-05-05 00:44 36.18107 139.93964 21112 ft 378 kts 10°
2026-05-05 00:44 36.20630 139.94694 21190 ft 366 kts 359°
2026-05-05 00:45 36.23133 139.94817 21208 ft 356 kts 351°
2026-05-05 00:45 36.25605 139.94740 21206 ft 355 kts 351°
2026-05-05 00:45 36.28077 139.94666 21206 ft 355 kts 351°
2026-05-05 00:45 36.30545 139.94593 21204 ft 355 kts 351°
2026-05-05 00:46 36.33019 139.94523 21209 ft 355 kts 352°
2026-05-05 00:46 36.35485 139.94453 21209 ft 354 kts 352°
2026-05-05 00:46 36.37949 139.94381 21209 ft 354 kts 352°
2026-05-05 00:46 36.40412 139.94307 21209 ft 354 kts 352°
2026-05-05 00:47 36.42874 139.94246 21206 ft 355 kts 353°
2026-05-05 00:47 36.45348 139.94280 21205 ft 356 kts 354°
2026-05-05 00:47 36.47830 139.94387 21203 ft 357 kts 355°
2026-05-05 00:47 36.50306 139.94525 21203 ft 357 kts 356°
2026-05-05 00:48 36.52792 139.94669 21194 ft 358 kts 356°
2026-05-05 00:48 36.55277 139.94806 21187 ft 358 kts 356°
2026-05-05 00:48 36.57769 139.94927 21183 ft 359 kts 355°
2026-05-05 00:48 36.60263 139.95036 21184 ft 359 kts 355°
2026-05-05 00:49 36.62762 139.95138 21182 ft 359 kts 355°
2026-05-05 00:49 36.65260 139.95241 21182 ft 359 kts 355°
2026-05-05 00:49 36.67762 139.95350 21183 ft 360 kts 355°
2026-05-05 00:49 36.70263 139.95459 21198 ft 360 kts 355°
2026-05-05 00:50 36.72764 139.95566 21193 ft 360 kts 355°
2026-05-05 00:50 36.75268 139.95673 21193 ft 360 kts 355°
2026-05-05 00:50 36.77773 139.95780 21190 ft 360 kts 355°
2026-05-05 00:50 36.80275 139.95889 21189 ft 360 kts 355°
2026-05-05 00:51 36.82779 139.95997 21189 ft 360 kts 355°
2026-05-05 00:51 36.85281 139.96106 21189 ft 360 kts 355°
2026-05-05 00:51 36.87789 139.96300 21186 ft 364 kts
2026-05-05 00:51 36.90289 139.96908 21216 ft 367 kts
2026-05-05 00:52 36.92762 139.97549 21192 ft 360 kts
2026-05-05 00:52 36.95216 139.98180 21190 ft 360 kts
2026-05-05 00:52 36.97673 139.98808 21190 ft 360 kts
2026-05-05 00:52 37.00123 139.99433 21190 ft 360 kts
2026-05-05 00:53 37.02576 140.00062 21189 ft 360 kts
2026-05-05 00:53 37.05029 140.00693 21190 ft 360 kts
2026-05-05 00:53 37.07477 140.01323 21190 ft 360 kts
2026-05-05 00:53 37.09928 140.01956 21199 ft 360 kts
2026-05-05 00:54 37.12346 140.02580 21188 ft 359 kts
2026-05-05 00:54 37.14793 140.03212 21186 ft 359 kts
2026-05-05 00:54 37.17240 140.03847 21185 ft 359 kts
2026-05-05 00:54 37.19690 140.04480 21182 ft 359 kts
2026-05-05 00:55 37.22140 140.05113 21179 ft 359 kts
2026-05-05 00:55 37.24586 140.05747 21178 ft 359 kts
2026-05-05 00:55 37.27035 140.06385 21185 ft 360 kts
2026-05-05 00:55 37.29488 140.07024 21186 ft 360 kts
2026-05-05 00:56 37.31935 140.07663 21210 ft 359 kts
2026-05-05 00:56 37.34382 140.08302 21206 ft 360 kts
2026-05-05 00:56 37.36850 140.08940 20760 ft 363 kts
2026-05-05 00:56 37.39303 140.09575 20358 ft 356 kts
2026-05-05 00:57 37.41698 140.10197 19685 ft 346 kts
2026-05-05 00:57 37.44000 140.10800 19255 ft 330 kts
2026-05-05 00:57 37.46218 140.11384 18854 ft 324 kts
2026-05-05 00:57 37.48418 140.11959 18443 ft 322 kts
2026-05-05 00:58 37.50600 140.12525 17995 ft 319 kts
2026-05-05 00:58 37.52771 140.13089 17557 ft 317 kts
2026-05-05 00:58 37.54920 140.13650 17146 ft 315 kts
2026-05-05 00:58 37.57055 140.14206 16764 ft 312 kts
2026-05-05 00:59 37.59183 140.14758 16338 ft 312 kts
2026-05-05 00:59 37.61272 140.15302 15945 ft 310 kts
2026-05-05 00:59 37.63372 140.15914 15548 ft 309 kts
2026-05-05 00:59 37.65444 140.16594 15157 ft 307 kts
2026-05-05 01:00 37.67500 140.17302 14770 ft 305 kts
2026-05-05 01:00 37.69543 140.18010 14378 ft 303 kts
2026-05-05 01:00 37.71567 140.18707 13991 ft 300 kts
2026-05-05 01:00 37.73576 140.19390 13580 ft 297 kts
2026-05-05 01:01 37.75556 140.20061 13211 ft 293 kts
2026-05-05 01:01 37.77518 140.20722 12804 ft 290 kts
2026-05-05 01:01 37.79461 140.21370 12337 ft 289 kts
2026-05-05 01:01 37.81406 140.22014 11921 ft 288 kts
2026-05-05 01:02 37.83341 140.22658 11542 ft 287 kts
2026-05-05 01:02 37.85269 140.23304 11156 ft 286 kts
2026-05-05 01:02 37.87188 140.23947 10781 ft 285 kts
2026-05-05 01:02 37.89091 140.24586 10402 ft 282 kts
2026-05-05 01:03 37.90967 140.25216 10207 ft 274 kts
2026-05-05 01:03 37.92757 140.25823 10117 ft 260 kts
2026-05-05 01:03 37.94475 140.26408 9925 ft 253 kts
2026-05-05 01:03 37.96179 140.26981 9527 ft 253 kts
2026-05-05 01:04 37.97884 140.27549 9160 ft 253 kts
2026-05-05 01:04 38.01230 140.28879 8451 ft 251 kts 13°
2026-05-05 01:04 38.02873 140.29630 8093 ft 250 kts 14°
2026-05-05 01:05 38.04483 140.30374 7743 ft 249 kts 14°
2026-05-05 01:05 38.06116 140.31123 7388 ft 249 kts 14°
2026-05-05 01:05 38.07733 140.31859 7026 ft 242 kts 14°
2026-05-05 01:05 38.09293 140.32462 6695 ft 226 kts
2026-05-05 01:06 38.10811 140.32693 6383 ft 217 kts
2026-05-05 01:06 38.12323 140.32911 5974 ft 220 kts
2026-05-05 01:06 38.13819 140.33131 5639 ft 212 kts
2026-05-05 01:06 38.15255 140.33342 5348 ft 204 kts
2026-05-05 01:07 38.16646 140.33544 5065 ft 198 kts
2026-05-05 01:07 38.17991 140.33740 4836 ft 193 kts
2026-05-05 01:07 38.19319 140.33933 4538 ft 191 kts
2026-05-05 01:07 38.20638 140.34125 4267 ft 190 kts
2026-05-05 01:08 38.21946 140.34316 4010 ft 189 kts
2026-05-05 01:08 38.23246 140.34506 3753 ft 188 kts
2026-05-05 01:08 38.24541 140.34695 3501 ft 188 kts
2026-05-05 01:08 38.25838 140.34884 3246 ft 187 kts
2026-05-05 01:09 38.26690 140.35009 3077 ft 186 kts
2026-05-05 01:09 38.27962 140.35195 2817 ft 182 kts
2026-05-05 01:09 38.29178 140.35376 2579 ft 171 kts 360°
2026-05-05 01:09 38.30313 140.35542 2340 ft 158 kts
2026-05-05 01:10 38.31391 140.35699 2121 ft 155 kts
2026-05-05 01:10 38.32451 140.35853 1908 ft 153 kts
2026-05-05 01:10 38.33518 140.36008 1703 ft 155 kts
2026-05-05 01:10 38.34576 140.36164 1507 ft 149 kts
2026-05-05 01:11 38.35581 140.36312 1316 ft 143 kts
2026-05-05 01:11 38.36553 140.36454 1122 ft 139 kts
2026-05-05 01:11 38.37518 140.36596 942 ft 140 kts
2026-05-05 01:11 38.38487 140.36732 749 ft 138 kts
2026-05-05 01:12 38.39431 140.36872 575 ft 136 kts
2026-05-05 01:12 38.40366 140.37018 385 ft 135 kts
2026-05-05 01:12 38.41225 140.37132 354 ft 106 kts
2026-05-05 01:12 38.41774 140.37215 359 ft 56 kts
2026-05-05 01:13 38.41986 140.37226 363 ft 13 kts 327°
2026-05-05 01:13 38.42074 140.37225 361 ft 11 kts 43°
2026-05-05 01:13 38.42050 140.37260 361 ft 5 kts 190°
2026-05-05 01:13 38.42008 140.37253 359 ft 8 kts 187°
2026-05-05 01:14 38.41935 140.37242 362 ft 13 kts 187°
2026-05-05 01:14 38.41822 140.37225 357 ft 20 kts 186°
2026-05-05 01:14 38.41663 140.37202 354 ft 26 kts 186°
2026-05-05 01:14 38.41478 140.37174 356 ft 28 kts 187°
2026-05-05 01:15 38.41285 140.37149 354 ft 27 kts 186°
2026-05-05 01:15 38.41099 140.37122 353 ft 25 kts 187°
2026-05-05 01:15 38.41021 140.37049 351 ft 14 kts 286°
2026-05-05 01:15 38.41026 140.36924 357 ft 15 kts 274°
2026-05-05 01:16 38.41042 140.36808 359 ft 12 kts 294°
2026-05-05 01:16 38.41073 140.36725 355 ft 5 kts 291°
2026-05-05 01:16 38.41079 140.36704 352 ft 1 kts 290°
2026-05-05 01:16 38.41079 140.36703 352 ft 0 kts 290°